Weather History for Burlington, CO

Change the Weather History Date:

Sunday, March 9, 2014

  Actual Average Record
Temperature  
Mean Temperature 52 °F 38 °F  
Max Temperature 75 °F 52 °F 82 °F (1989)
Min Temperature 29 °F 23 °F -7 °F (1932)
Degree Days  
Heating Degree Days 12    
Growing Degree Days 2 (Base 50)    
Moisture  
Dew Point 17 °F    
Average Humidity 36    
Maximum Humidity 79    
Minimum Humidity 6    
Precipitation  
Precipitation 0.00 in 0.03 in 0.35 in (1968)
Month to date precipitation 0.01 0.22  
Year to date precipitation 0.71 1.02  
Sea Level Pressure  
Sea Level Pressure 30.05 in    
Wind  
Wind Speed 13 mph (WSW)    
Max Wind Speed 21 mph    
Max Gust Speed 28 mph    
Visibility 10 miles    
Events      
T = Trace of Precipitation, MM = Missing Value Source: NWS Daily Summary

Daily Weather History Graph

Daily Weather History Graph

Search for Another Location

Airport:

Trip Planner

Search our weather history database for the weather conditions in past years. The results will help you decide how hot, cold, wet, or windy it might be!

Date:

Astronomy

Mar. 09, 2014 Rise Set
Actual Time 7:09 AM MDT 6:50 PM MDT
Civil Twilight 6:43 AM MDT 7:16 PM MDT
Nautical Twilight 6:12 AM MDT 7:47 PM MDT
Astronomical Twilight 5:40 AM MDT 8:19 PM MDT
Moon 12:46 PM MDT (3/9) 3:35 AM MDT (3/9)
Length of Visible Light 12h 33m
Length of Day
11h 40m
First Quarter, 61% of the Moon is Illuminated
Mar 9
First Quarter
Mar 16
Full
Mar 23
Last Quarter
Mar 30
New
Apr 7
First Quarter

Hourly Weather History & Observations

Time (MDT) Temp. Windchill Dew Point Humidity Pressure Visibility Wind Dir Wind Speed Gust Speed Precip Events Conditions
12:53 AM 30.0 °F 20.5 °F 24.1 °F 79% 30.26 in 10.0 mi SW 11.5 mph - N/A   Clear
1:53 AM 30.9 °F 21.7 °F 24.1 °F 76% 30.23 in 10.0 mi WSW 11.5 mph - N/A   Clear
3:53 AM 32.0 °F 22.5 °F 24.1 °F 73% 30.19 in 10.0 mi WSW 12.7 mph - N/A   Clear
4:53 AM 34.0 °F 24.6 °F 25.0 °F 70% 30.18 in 10.0 mi WSW 13.8 mph - N/A   Clear
5:53 AM 34.0 °F 24.6 °F 24.1 °F 67% 30.17 in 10.0 mi WSW 13.8 mph - N/A   Clear
6:53 AM 35.1 °F 25.2 °F 24.1 °F 64% 30.17 in 10.0 mi WSW 16.1 mph - N/A   Clear
7:53 AM 37.0 °F 28.9 °F 24.1 °F 59% 30.17 in 10.0 mi WSW 12.7 mph - N/A   Clear
8:53 AM 45.0 °F 38.2 °F 26.1 °F 48% 30.15 in 10.0 mi WSW 15.0 mph - N/A   Clear
9:53 AM 57.0 °F - 23.0 °F 27% 30.12 in 10.0 mi WSW 17.3 mph - N/A   Clear
10:53 AM 64.0 °F - 16.0 °F 16% 30.09 in 10.0 mi WSW 20.7 mph - N/A   Clear
11:53 AM 68.0 °F - 14.0 °F 12% 30.05 in 10.0 mi SW 20.7 mph - N/A   Clear
12:53 PM 70.0 °F - 16.0 °F 13% 30.04 in 10.0 mi WSW 19.6 mph 27.6 mph N/A   Clear
1:53 PM 72.0 °F - 9.0 °F 9% 29.99 in 10.0 mi SW 17.3 mph 26.5 mph N/A   Clear
2:53 PM 73.9 °F - 5.0 °F 7% 29.96 in 10.0 mi SW 15.0 mph - N/A   Clear
3:53 PM 75.0 °F - 1.0 °F 6% 29.94 in 10.0 mi West 10.4 mph - N/A   Clear
4:53 PM 73.0 °F - 3.9 °F 7% 29.92 in 10.0 mi WSW 12.7 mph - N/A   Clear
5:53 PM 69.1 °F - 7.0 °F 9% 29.92 in 10.0 mi SW 10.4 mph - N/A   Clear
6:53 PM 57.9 °F - 14.0 °F 18% 29.95 in 10.0 mi SW 12.7 mph - N/A   Clear
7:53 PM 51.1 °F - 17.1 °F 26% 29.98 in 10.0 mi WSW 9.2 mph - N/A   Clear
8:53 PM 51.1 °F - 19.0 °F 28% 29.98 in 10.0 mi WSW 11.5 mph - N/A   Clear
9:53 PM 48.9 °F - 19.9 °F 32% 29.97 in 10.0 mi WNW 10.4 mph - N/A   Clear
10:53 PM 48.0 °F - 18.0 °F 30% 29.96 in 10.0 mi NNW 9.2 mph - N/A   Clear
11:53 PM 39.9 °F - 18.0 °F 41% 29.95 in 10.0 mi Calm Calm - N/A   Clear
12:53 AM 35.1 °F 30.1 °F 18.0 °F 50% 29.94 in 10.0 mi SSW 5.8 mph - N/A   Clear